This demonstration page uses our WeatherBlox Daily Observations layout. Learn more.

Left ArrowRight Arrow

39.08367, -84.50855

Hourly Observations for July 10, 2017

Temp ( °F °C ) Dew Point ( °F °C ) Humidity (%) Winds ( mph kmh ) Pressure ( in mb ) Visibility ( mi km ) Precip ( " mm )
12:53 am 00:53 Clear 66 18.9 64 17.8 93 93 N N/A 30.04 1017 10 16.0934 N/A
1:53 am 01:53 Clear 65 18.3 64 17.8 97 97 N N/A 30.03 1017 10 16.0934 N/A
2:53 am 02:53 Partly Cloudy 64 17.8 64 17.8 100 100 N N/A 30.01 1016 10 16.0934 N/A
3:53 am 03:53 Clear 66 18.9 63 17.2 90 90 N N/A 30 1016 10 16.0934 N/A
4:53 am 04:53 Cloudy 67 19.4 63 17.2 87 87 SSW 6 9 29.99 1016 10 16.0934 N/A
5:03 am 05:03 Mostly Cloudy with Nearby Thunderstorms 67 19.4 63 17.2 87 87 S 7 11 29.97 1015 10 16.0934 N/A
5:53 am 05:53 Cloudy with Nearby Thunderstorms 67 19.4 65 18.3 93 93 N N/A 29.99 1016 10 16.0934 N/A
6:05 am 06:05 Cloudy 67 19.4 64 17.8 91 91 N N/A 29.97 1015 10 16.0934 N/A
6:53 am 06:53 Sunny 67 19.4 63 17.2 87 87 SSW 3 6 29.99 1016 10 16.0934 N/A
7:53 am 07:53 Mostly Cloudy 71 21.7 66 18.9 84 84 SSW 7 11 29.99 1016 10 16.0934 N/A
8:53 am 08:53 Mostly Cloudy 73 22.8 68 20 84 84 SSW 6 9 30.01 1016 10 16.0934 N/A
9:34 am 09:34 Partly Cloudy with Nearby Thunderstorms 76 24.4 70 21.1 82 82 SSW 8 13 30 1016 10 16.0934 N/A
9:53 am 09:53 Mostly Sunny 77 25 70 21.1 79 79 SSW 8 13 30 1016 10 16.0934 N/A
10:25 am 10:25 Mostly Sunny 79 26.1 71 21.7 77 77 SW 8 13 29.97 1015 10 16.0934 N/A
10:53 am 10:53 Sunny 80 26.7 70 21.1 71 71 SW 12 19 29.99 1016 10 16.0934 N/A
11:53 am 11:53 Mostly Sunny 82 27.8 72 22.2 72 72 WSW 15 24 29.99 1016 10 16.0934 N/A
12:53 pm 12:53 Partly Cloudy 85 29.4 72 22.2 65 65 SW 14 22 29.96 1015 10 16.0934 N/A
1:53 pm 13:53 Mostly Cloudy 86 30 71 21.7 61 61 SSW 17 28 29.94 1014 10 16.0934 N/A
2:53 pm 14:53 Partly Cloudy 85 29.4 72 22.2 65 65 SSW 17 28 29.93 1014 10 16.0934 N/A
3:53 pm 15:53 Sunny 86 30 71 21.7 61 61 SW 15 24 29.92 1013 10 16.0934 N/A
4:53 pm 16:53 Sunny 86 30 71 21.7 61 61 SW 14 22 29.92 1013 10 16.0934 N/A
5:53 pm 17:53 Sunny 84 28.9 67 19.4 57 57 SW 17 28 29.9 1012 10 16.0934 N/A
6:53 pm 18:53 Sunny 85 29.4 67 19.4 55 55 SW 13 20 29.91 1013 10 16.0934 N/A
7:53 pm 19:53 Partly Cloudy 81 27.2 66 18.9 61 61 SSW 7 11 29.91 1013 10 16.0934 N/A
8:53 pm 20:53 Mostly Cloudy 76 24.4 68 20 77 77 SSW 7 11 29.9 1013 10 16.0934 N/A
9:53 pm 21:53 Mostly Clear 76 24.4 68 20 77 77 SSW 7 11 29.92 1013 10 16.0934 N/A
10:53 pm 22:53 Partly Cloudy 77 25 69 20.6 77 77 S 9 15 29.92 1013 10 16.0934 N/A
11:53 pm 23:53 Mostly Clear 77 25 70 21.1 79 79 SSW 8 13 29.93 1014 10 16.0934 N/A

Powered by AerisWeather